Location: Ballingbuur
(53.0000°N, 5.7667°E)
Time: 05:26:00
(UTC+00:00)

Okean 3 Rocket - Pass Details

Date: 29 November 2020
Orbit: 615 x 645 km, 82.5° (Epoch: 23 January)

Event Time Altitude Azimuth Distance (km) Brightness Sun altitude
Exits shadow 05:07:15 39° 321° (NW) 946 4.1 -19.7°
Drops below altitude 10° 05:10:37 10° 1° (N) 2,010 6.1 -19.2°
Sets 05:12:58 0° 8° (N) 2,927 7.0 -18.9°
